Location: Unspecified
(0.0000°N, 0.0000°E)
Time: 13:59:01
(UTC+00:00)

Tiangong 1 - Visible Passes

Search period start: 28 April 2017 00:00
Search period end: 08 May 2017 00:00
Orbit: 329 x 352 km, 42.8° (Epoch: 26 April)

Date Brightness Start Highest point End Pass type
(mag) Time Alt. Az. Time Alt. Az. Time Alt. Az.
28 Apr 2.5 19:23:20 10° WSW 19:25:57 31° NW 19:26:19 30° NNW visible
30 Apr 3.0 18:31:14 10° WSW 18:33:46 28° NW 18:36:17 10° NNE visible
02 May 3.6 04:40:31 10° N 04:42:39 19° NE 04:44:49 10° E visible
03 May 0.7 05:02:06 17° WNW 05:04:07 61° SW 05:06:56 10° SE visible
04 May 3.0 05:24:37 10° WSW 05:25:33 11° SW 05:26:30 10° SSW visible
